Weather History for 93119 - March, 2013

Change the Weather History Date:

Thursday, March 7, 2013

  Actual Average Record
Temperature  
Mean Temperature 69 °F -  
Max Temperature 78 °F 69 °F - ()
Min Temperature 60 °F 57 °F - ()
Cooling Degree Days 4    
Growing Degree Days 19 (Base 50)    
Moisture  
Dew Point 56 °F    
Average Humidity 64    
Maximum Humidity 88    
Minimum Humidity 41    
Precipitation  
Precipitation 0.00 in 0.12 in - ()
Sea Level Pressure  
Sea Level Pressure 30.02 in    
Wind  
Wind Speed 8 mph ()    
Max Wind Speed 15 mph    
Max Gust Speed -    
Visibility 6.2 miles    
Events      
T = Trace of Precipitation, MM = Missing Value Source: Averaged Metar Reports

Daily Weather History Graph

Daily Weather History Graph

Search for Another Location

Airport or City:

Trip Planner

Search our weather history database for the weather conditions in past years. The results will help you decide how hot, cold, wet, or windy it might be!

Date:

Astronomy

Mar. 07, 2013 Rise Set
Actual Time 7:11 AM NZDT 7:51 PM NZDT
Civil Twilight 6:45 AM NZDT 8:17 PM NZDT
Nautical Twilight 6:14 AM NZDT 8:48 PM NZDT
Astronomical Twilight 5:42 AM NZDT 9:20 PM NZDT
Moon 1:54 AM NZDT (3/7) 4:24 PM NZDT (3/7)
Length of Visible Light 13h 32m
Length of Day
12h 40m
Waning Crescent, 27% of the Moon is Illuminated
Mar 7
Waning Crescent
Mar 12
New
Mar 20
First Quarter
Mar 27
Full
Apr 3
Last Quarter

Hourly Weather History & Observations

Time (NZDT) Temp. Dew Point Humidity Pressure Visibility Wind Dir Wind Speed Gust Speed Precip Events Conditions
12:00 AM 66.2 °F 57.2 °F 73% 30.01 in 6.2 mi SW 15.0 mph - N/A   Mostly Cloudy
1:00 AM 66.2 °F 57.2 °F 73% 30.01 in 6.2 mi SW 10.4 mph - N/A   Mostly Cloudy
2:00 AM 66.2 °F 57.2 °F 73% 30.01 in 6.2 mi SW 13.8 mph - N/A   Mostly Cloudy
3:00 AM 66.2 °F 57.2 °F 73% 29.98 in 6.2 mi SSW 11.5 mph - N/A   Mostly Cloudy
4:00 AM 64.4 °F 55.4 °F 73% 29.98 in 6.2 mi SSW 9.2 mph - N/A   Mostly Cloudy
5:00 AM 64.4 °F 57.2 °F 77% 29.98 in 6.2 mi South 6.9 mph - N/A   Mostly Cloudy
6:00 AM 62.6 °F 57.2 °F 82% 29.98 in 6.2 mi South 5.8 mph - N/A   Scattered Clouds
7:00 AM 60.8 °F 57.2 °F 88% 30.01 in 6.2 mi SE 3.5 mph - N/A   Scattered Clouds
8:00 AM 62.6 °F 57.2 °F 82% 30.01 in 6.2 mi SSE 5.8 mph - N/A   Partly Cloudy
9:00 AM 64.4 °F 57.2 °F 77% 30.04 in 6.2 mi SE 6.9 mph - N/A   Partly Cloudy
10:00 AM 68.0 °F 57.2 °F 68% 30.04 in 6.2 mi SE 8.1 mph - N/A   Partly Cloudy
11:00 AM 71.6 °F 57.2 °F 60% 30.04 in 6.2 mi South 8.1 mph - N/A   Partly Cloudy
12:00 PM 73.4 °F 55.4 °F 53% 30.04 in 6.2 mi SSE 6.9 mph - N/A   Partly Cloudy
1:00 PM 75.2 °F 55.4 °F 50% 30.01 in 6.2 mi East 4.6 mph - N/A   Scattered Clouds
2:00 PM 77.0 °F 51.8 °F 41% 30.01 in 6.2 mi NE 6.9 mph - N/A   Scattered Clouds
3:00 PM 75.2 °F 55.4 °F 50% 30.01 in 6.2 mi East 12.7 mph - N/A   Scattered Clouds
4:00 PM 78.8 °F 55.4 °F 44% 30.01 in 6.2 mi NE 11.5 mph - N/A   Mostly Cloudy
5:00 PM 77.0 °F 55.4 °F 47% 30.01 in 6.2 mi NE 10.4 mph - N/A   Scattered Clouds
6:00 PM 77.0 °F 55.4 °F 47% 30.01 in 6.2 mi NE 8.1 mph - N/A   Scattered Clouds
7:00 PM 75.2 °F 55.4 °F 50% 30.04 in 6.2 mi ENE 8.1 mph - N/A   Partly Cloudy
8:00 PM 71.6 °F 55.4 °F 57% 30.04 in 6.2 mi NNE 8.1 mph - N/A   Partly Cloudy
9:00 PM 68.0 °F 57.2 °F 68% 30.06 in 6.2 mi ENE 5.8 mph - N/A   Unknown
10:00 PM 68.0 °F 57.2 °F 68% 30.09 in 6.2 mi Calm Calm - N/A   Partly Cloudy
11:00 PM 66.2 °F 57.2 °F 73% 30.12 in 6.2 mi NE 1.2 mph - N/A   Partly Cloudy